Weather History for Toledo, OH

Change the Weather History Date:

Thursday, June 27, 2013

  Actual Average Record
Temperature  
Mean Temperature 75 °F 73 °F  
Max Temperature 84 °F 84 °F 98 °F (1971)
Min Temperature 65 °F 61 °F 45 °F (1988)
Degree Days  
Heating Degree Days 0 0  
Month to date heating degree days 31 35  
Since 1 June heating degree days 31 35  
Since 1 July heating degree days 6165 6145  
Cooling Degree Days 10 8  
Month to date cooling degree days 147 146  
Year to date cooling degree days 241 199  
Since 1 June cooling degree days 147 146  
Growing Degree Days 25 (Base 50)    
Moisture  
Dew Point 67 °F    
Average Humidity 78    
Maximum Humidity 97    
Minimum Humidity 58    
Precipitation  
Precipitation 0.23 in 0.10 in 1.80 in (1983)
Month to date precipitation 6.07 3.24  
Year to date precipitation 20.57 16.61  
Snow  
Snow 0.00 in 0.00 in - ()
Month to date snowfall 0.0 0.0  
Since 1 June snowfall 0.0 0.0  
Since 1 July snowfall 22.4 37.6  
Snow Depth 0.00 in    
Sea Level Pressure  
Sea Level Pressure 29.72 in    
Wind  
Wind Speed 5 mph (NNW)    
Max Wind Speed 43 mph    
Max Gust Speed 54 mph    
Visibility 6 miles    
Events Rain , Thunderstorm    
T = Trace of Precipitation, MM = Missing Value Source: NWS Daily Summary

Daily Weather History Graph

Daily Weather History Graph

Search for Another Location

Airport:

Trip Planner

Search our weather history database for the weather conditions in past years. The results will help you decide how hot, cold, wet, or windy it might be!

Date:

Astronomy

Jun. 27, 2013 Rise Set
Actual Time 6:03 AM EDT 9:13 PM EDT
Civil Twilight 5:29 AM EDT 9:47 PM EDT
Nautical Twilight 4:45 AM EDT 10:31 PM EDT
Astronomical Twilight 3:52 AM EDT 11:23 PM EDT
Moon No Moon Rise 11:07 AM EDT (6/27)
Length of Visible Light 16h 18m
Length of Day
15h 10m
Waning Gibbous, 76% of the Moon is Illuminated
Jun 27
Waning Gibbous
Jun 30
Last Quarter
Jul 8
New
Jul 15
First Quarter
Jul 22
Full

Hourly Weather History & Observations

Time (EDT) Temp. Heat Index Dew Point Humidity Pressure Visibility Wind Dir Wind Speed Gust Speed Precip Events Conditions
12:52 AM 70.0 °F - 69.1 °F 97% 29.76 in 6.0 mi Calm Calm - 0.00 in Rain Light Rain
1:52 AM 71.1 °F - 69.1 °F 93% 29.75 in 9.0 mi NW 3.5 mph - 0.00 in Rain Light Rain
2:41 AM 69.8 °F - 69.8 °F 100% 29.75 in 5.0 mi Calm Calm - 0.00 in   Overcast
2:52 AM 70.0 °F - 69.1 °F 97% 29.74 in 4.0 mi NW 3.5 mph - 0.00 in   Mostly Cloudy
3:18 AM 69.8 °F - 69.8 °F 100% 29.74 in 4.0 mi Calm Calm - N/A   Mostly Cloudy
3:38 AM 69.8 °F - 68.0 °F 94% 29.73 in 2.5 mi Calm Calm - N/A   Mostly Cloudy
3:52 AM 69.1 °F - 68.0 °F 96% 29.73 in 2.0 mi Calm Calm - N/A   Mostly Cloudy
4:05 AM 69.8 °F - 68.0 °F 94% 29.74 in 1.8 mi Calm Calm - N/A   Mostly Cloudy
4:14 AM 69.8 °F - 68.0 °F 94% 29.74 in 1.0 mi Calm Calm - N/A   Mostly Cloudy
4:18 AM 69.8 °F - 68.0 °F 94% 29.74 in 0.8 mi Calm Calm - N/A   Mostly Cloudy
4:31 AM 69.8 °F - 68.0 °F 94% 29.74 in 1.5 mi Calm Calm - N/A   Mostly Cloudy
4:42 AM 69.8 °F - 68.0 °F 94% 29.74 in 1.2 mi ESE 3.5 mph - N/A   Mostly Cloudy
4:49 AM 69.8 °F - 68.0 °F 94% 29.73 in 2.0 mi ESE 3.5 mph - N/A   Mostly Cloudy
4:52 AM 69.1 °F - 68.0 °F 96% 29.71 in 3.0 mi ESE 3.5 mph - N/A   Scattered Clouds
5:02 AM 69.8 °F - 68.0 °F 94% 29.73 in 3.0 mi Calm Calm - N/A   Scattered Clouds
5:38 AM 69.8 °F - 68.0 °F 94% 29.74 in 5.0 mi Calm Calm - N/A   Mostly Cloudy
5:52 AM 70.0 °F - 68.0 °F 93% 29.73 in 6.0 mi NNW 4.6 mph - N/A   Overcast
6:52 AM 70.0 °F - 68.0 °F 93% 29.73 in 4.0 mi Calm Calm - 0.01 in   Overcast
7:52 AM 71.1 °F - 69.1 °F 93% 29.74 in 4.0 mi North 3.5 mph - N/A   Overcast
8:08 AM 71.6 °F - 69.8 °F 94% 29.75 in 4.0 mi NW 3.5 mph - N/A   Overcast
8:28 AM 71.6 °F - 69.8 °F 94% 29.74 in 7.0 mi Calm Calm - N/A   Overcast
8:52 AM 73.0 °F - 69.1 °F 87% 29.73 in 9.0 mi NNW 4.6 mph - N/A   Overcast
9:36 AM 75.2 °F - 68.0 °F 78% 29.74 in 10.0 mi North 4.6 mph - N/A   Mostly Cloudy
9:52 AM 75.9 °F - 69.1 °F 79% 29.73 in 10.0 mi North 4.6 mph - N/A   Mostly Cloudy
10:47 AM 75.2 °F - 69.8 °F 83% 29.73 in 10.0 mi NNW 5.8 mph - N/A   Mostly Cloudy
10:52 AM 75.9 °F - 68.0 °F 76% 29.72 in 10.0 mi North 5.8 mph - N/A   Mostly Cloudy
11:04 AM 75.2 °F - 68.0 °F 78% 29.73 in 10.0 mi NNW 5.8 mph - N/A   Overcast
11:13 AM 75.2 °F - 69.8 °F 83% 29.74 in 10.0 mi NW 5.8 mph - N/A   Mostly Cloudy
11:52 AM 77.0 °F - 68.0 °F 74% 29.74 in 10.0 mi NW 8.1 mph - N/A   Overcast
12:32 PM 78.8 °F - 66.2 °F 65% 29.74 in 10.0 mi North 6.9 mph - N/A   Scattered Clouds
12:52 PM 79.0 °F - 68.0 °F 69% 29.73 in 10.0 mi NW 5.8 mph - N/A   Scattered Clouds
1:52 PM 82.0 °F 84.9 °F 68.0 °F 62% 29.72 in 10.0 mi NW 8.1 mph - N/A   Partly Cloudy
2:52 PM 82.9 °F 85.4 °F 66.9 °F 58% 29.70 in 10.0 mi WNW 8.1 mph - N/A   Partly Cloudy
3:52 PM 84.0 °F 87.0 °F 68.0 °F 58% 29.68 in 10.0 mi WSW 11.5 mph 16.1 mph N/A   Partly Cloudy
4:52 PM 82.0 °F 84.1 °F 66.0 °F 58% 29.67 in 10.0 mi West 11.5 mph - N/A   Partly Cloudy
5:34 PM 80.6 °F 82.7 °F 66.2 °F 61% 29.67 in 10.0 mi SSW 4.6 mph - N/A Thunderstorm Partly Cloudy
5:52 PM 77.0 °F - 69.1 °F 76% 29.66 in 1.8 mi Calm Calm - 0.00 in Rain , Thunderstorm Light Thunderstorms and Rain
5:59 PM 75.2 °F - 68.0 °F 78% 29.72 in 1.2 mi North 33.4 mph 46.0 mph 0.07 in Rain , Thunderstorm Light Thunderstorms and Rain
6:05 PM 66.2 °F - 62.6 °F 88% 29.69 in 0.8 mi North 28.8 mph 54.1 mph 0.07 in Rain , Thunderstorm Heavy Thunderstorms and Rain
6:12 PM 68.0 °F - 62.6 °F 83% 29.70 in 1.0 mi NE 31.1 mph 52.9 mph 0.20 in Rain , Thunderstorm Light Thunderstorms and Rain
6:15 PM 68.0 °F - 62.6 °F 83% 29.70 in 2.5 mi NNE 18.4 mph 48.3 mph 0.22 in Rain , Thunderstorm Light Thunderstorms and Rain
6:22 PM 69.8 °F - 64.4 °F 83% 29.69 in 10.0 mi ENE 10.4 mph 31.1 mph 0.22 in Rain , Thunderstorm Light Thunderstorms and Rain
6:52 PM 75.0 °F - 64.0 °F 69% 29.68 in 10.0 mi Calm Calm - 0.22 in   Clear
7:52 PM 71.1 °F - 66.0 °F 84% 29.72 in 10.0 mi NNE 18.4 mph - N/A   Mostly Cloudy
8:05 PM 71.6 °F - 66.2 °F 83% 29.73 in 10.0 mi NE 11.5 mph - N/A   Overcast
8:52 PM 69.1 °F - 64.9 °F 87% 29.68 in 10.0 mi ESE 3.5 mph - 0.00 in   Clear
9:52 PM 68.0 °F - 64.0 °F 87% 29.68 in 10.0 mi South 3.5 mph - N/A   Clear
10:52 PM 68.0 °F - 64.9 °F 90% 29.68 in 10.0 mi SW 3.5 mph - N/A   Clear
11:52 PM 68.0 °F - 64.9 °F 90% 29.64 in 10.0 mi WSW 3.5 mph - N/A   Clear